Time,TemperatureF,DewpointF,PressureIn,WindDirection,WindDirectionDegrees,WindSpeedMPH,WindSpeedGustMPH,Humidity,HourlyPrecipIn,Conditions,Clouds,dailyrainin,SoftwareType,DateUTC
2013-04-10 00:02:00,50.9,35.3,29.50,ESE,112,0.0,0.0,55,0.00,,CLR,0.00,VWS V14.01,2013-04-10 07:02:00,
2013-04-10 00:07:00,50.9,35.3,29.50,ESE,112,0.0,0.0,55,0.00,,CLR,0.00,VWS V14.01,2013-04-10 07:07:00,
2013-04-10 00:12:00,51.1,36.4,29.50,East,90,0.0,0.0,57,0.00,,CLR,0.00,VWS V14.01,2013-04-10 07:12:00,
2013-04-10 00:17:00,51.1,36.8,29.50,ESE,112,1.6,1.6,58,0.00,,CLR,0.00,VWS V14.01,2013-04-10 07:17:00,
2013-04-10 00:22:00,51.1,37.3,29.50,NE,45,0.0,0.0,59,0.00,,CLR,0.00,VWS V14.01,2013-04-10 07:22:00,
2013-04-10 00:27:00,50.7,36.1,29.50,East,90,0.0,0.0,57,0.00,,CLR,0.00,VWS V14.01,2013-04-10 07:27:00,
2013-04-10 00:32:00,50.4,34.8,29.50,ENE,68,0.0,0.0,55,0.00,,CLR,0.00,VWS V14.01,2013-04-10 07:32:00,
2013-04-10 00:37:00,50.4,34.4,29.50,East,90,0.0,0.0,54,0.00,,CLR,0.00,VWS V14.01,2013-04-10 07:37:00,
2013-04-10 00:42:00,50.2,33.2,29.50,ENE,68,0.0,0.0,52,0.00,,CLR,0.00,VWS V14.01,2013-04-10 07:42:00,
2013-04-10 00:47:00,50.0,32.6,29.53,ENE,68,0.0,0.0,51,0.00,,CLR,0.00,VWS V14.01,2013-04-10 07:47:00,
2013-04-10 00:52:00,49.8,32.9,29.53,ENE,68,0.0,0.0,52,0.00,,CLR,0.00,VWS V14.01,2013-04-10 07:52:00,
2013-04-10 00:57:00,49.8,32.4,29.53,East,90,0.0,0.0,51,0.00,,CLR,0.00,VWS V14.01,2013-04-10 07:57:00,
2013-04-10 01:02:00,50.2,32.8,29.50,SE,135,0.0,0.0,51,0.00,,CLR,0.00,VWS V14.01,2013-04-10 08:02:00,
2013-04-10 01:07:00,50.2,32.3,29.50,WSW,248,0.0,0.0,50,0.00,,CLR,0.00,VWS V14.01,2013-04-10 08:07:00,
2013-04-10 01:12:00,50.4,31.9,29.50,SE,135,1.6,1.6,49,0.00,,CLR,0.00,VWS V14.01,2013-04-10 08:12:00,
2013-04-10 01:17:00,50.2,31.8,29.50,ESE,112,0.0,0.0,49,0.00,,CLR,0.00,VWS V14.01,2013-04-10 08:17:00,
2013-04-10 01:22:00,50.4,31.4,29.50,SE,135,0.0,0.0,48,0.00,,CLR,0.00,VWS V14.01,2013-04-10 08:22:00,
2013-04-10 01:27:00,50.4,31.4,29.50,ENE,68,0.0,0.0,48,0.00,,CLR,0.00,VWS V14.01,2013-04-10 08:27:00,
2013-04-10 01:33:00,50.2,31.3,29.50,ENE,68,0.0,0.0,48,0.00,,CLR,0.00,VWS V14.01,2013-04-10 08:33:00,
2013-04-10 01:38:00,49.8,30.9,29.50,ENE,68,0.0,0.0,48,0.00,,CLR,0.00,VWS V14.01,2013-04-10 08:38:00,
2013-04-10 01:43:00,49.8,30.9,29.50,ESE,112,2.7,2.7,48,0.00,,CLR,0.00,VWS V14.01,2013-04-10 08:43:00,
2013-04-10 01:48:00,49.8,30.9,29.50,ESE,112,0.0,0.0,48,0.00,,CLR,0.00,VWS V14.01,2013-04-10 08:48:00,
2013-04-10 01:53:00,49.6,30.8,29.50,NNE,22,0.0,0.0,48,0.00,,CLR,0.00,VWS V14.01,2013-04-10 08:53:00,
2013-04-10 01:58:00,49.5,30.6,29.50,SE,135,0.0,0.0,48,0.00,,CLR,0.00,VWS V14.01,2013-04-10 08:58:00,
2013-04-10 02:03:00,48.9,30.6,29.50,ESE,112,0.0,0.0,49,0.00,,CLR,0.00,VWS V14.01,2013-04-10 09:03:00,
2013-04-10 02:08:00,48.7,30.5,29.50,North,0,0.0,0.0,49,0.00,,CLR,0.00,VWS V14.01,2013-04-10 09:08:00,
2013-04-10 02:13:00,48.7,31.0,29.50,SE,135,0.0,0.0,50,0.00,,CLR,0.00,VWS V14.01,2013-04-10 09:13:00,
2013-04-10 02:18:00,48.4,30.6,29.50,ENE,68,0.0,0.0,50,0.00,,CLR,0.00,VWS V14.01,2013-04-10 09:18:00,
2013-04-10 02:23:00,48.4,30.6,29.50,East,90,0.0,0.0,50,0.00,,CLR,0.00,VWS V14.01,2013-04-10 09:23:00,
2013-04-10 02:28:00,48.4,30.6,29.50,ESE,112,0.0,0.0,50,0.00,,CLR,0.00,VWS V14.01,2013-04-10 09:28:00,
2013-04-10 02:33:00,48.6,31.3,29.50,ESE,112,0.0,0.0,51,0.00,,CLR,0.00,VWS V14.01,2013-04-10 09:33:00,
2013-04-10 02:38:00,48.6,31.8,29.50,ESE,112,0.0,0.0,52,0.00,,CLR,0.00,VWS V14.01,2013-04-10 09:38:00,
2013-04-10 02:43:00,48.7,31.9,29.50,ESE,112,0.0,0.0,52,0.00,,CLR,0.00,VWS V14.01,2013-04-10 09:43:00,
2013-04-10 02:48:00,48.7,31.9,29.47,ESE,112,0.0,0.0,52,0.00,,CLR,0.00,VWS V14.01,2013-04-10 09:48:00,
2013-04-10 02:53:00,48.9,31.6,29.47,ESE,112,0.0,0.0,51,0.00,,CLR,0.00,VWS V14.01,2013-04-10 09:53:00,
2013-04-10 02:58:00,48.9,32.1,29.47,ESE,112,0.0,0.0,52,0.00,,CLR,0.00,VWS V14.01,2013-04-10 09:58:00,
2013-04-10 03:03:00,48.9,31.6,29.50,ESE,112,0.0,0.0,51,0.00,,CLR,0.00,VWS V14.01,2013-04-10 10:03:00,
2013-04-10 03:08:00,48.9,31.6,29.50,ESE,112,0.0,0.0,51,0.00,,CLR,0.00,VWS V14.01,2013-04-10 10:08:00,
2013-04-10 03:13:00,48.7,31.4,29.50,ESE,112,0.0,0.0,51,0.00,,CLR,0.00,VWS V14.01,2013-04-10 10:13:00,
2013-04-10 03:18:00,48.7,31.4,29.50,ESE,112,0.0,0.0,51,0.00,,CLR,0.00,VWS V14.01,2013-04-10 10:18:00,
2013-04-10 03:23:00,48.4,32.0,29.50,ESE,112,0.0,0.0,53,0.00,,CLR,0.00,VWS V14.01,2013-04-10 10:23:00,
2013-04-10 03:28:00,48.0,33.1,29.50,ESE,112,0.0,0.0,56,0.00,,CLR,0.00,VWS V14.01,2013-04-10 10:28:00,
2013-04-10 03:33:00,47.8,33.8,29.50,SE,135,0.0,0.0,58,0.00,,CLR,0.00,VWS V14.01,2013-04-10 10:33:00,
2013-04-10 03:38:00,47.5,33.5,29.50,ESE,112,0.0,0.0,58,0.00,,CLR,0.00,VWS V14.01,2013-04-10 10:38:00,
2013-04-10 03:43:00,47.5,33.5,29.50,ESE,112,0.0,0.0,58,0.00,,CLR,0.00,VWS V14.01,2013-04-10 10:43:00,
2013-04-10 03:48:00,47.5,33.0,29.53,ESE,112,0.0,0.0,57,0.00,,CLR,0.00,VWS V14.01,2013-04-10 10:48:00,
2013-04-10 03:53:00,47.8,33.4,29.53,ESE,112,0.0,0.0,57,0.00,,CLR,0.00,VWS V14.01,2013-04-10 10:53:00,
2013-04-10 03:58:00,48.0,33.5,29.53,ESE,112,0.0,0.0,57,0.00,,CLR,0.00,VWS V14.01,2013-04-10 10:58:00,
2013-04-10 04:03:00,48.0,33.5,29.50,ESE,112,0.0,0.0,57,0.00,,CLR,0.00,VWS V14.01,2013-04-10 11:03:00,
2013-04-10 04:08:00,48.2,33.7,29.50,ESE,112,0.0,0.0,57,0.00,,CLR,0.00,VWS V14.01,2013-04-10 11:08:00,
2013-04-10 04:13:00,48.4,33.9,29.50,ESE,112,0.0,0.0,57,0.00,,CLR,0.00,VWS V14.01,2013-04-10 11:13:00,
2013-04-10 04:18:00,48.4,33.9,29.50,ESE,112,0.0,0.0,57,0.00,,CLR,0.00,VWS V14.01,2013-04-10 11:18:00,
2013-04-10 04:23:00,48.6,34.9,29.50,ESE,112,0.0,0.0,59,0.00,,CLR,0.00,VWS V14.01,2013-04-10 11:23:00,
2013-04-10 04:28:00,48.6,34.5,29.50,ESE,112,0.0,0.0,58,0.00,,CLR,0.00,VWS V14.01,2013-04-10 11:28:00,
2013-04-10 04:33:00,48.2,34.1,29.50,ESE,112,0.0,0.0,58,0.00,,CLR,0.00,VWS V14.01,2013-04-10 11:33:00,
2013-04-10 04:38:00,47.8,33.8,29.50,ESE,112,0.0,0.0,58,0.00,,CLR,0.00,VWS V14.01,2013-04-10 11:38:00,
2013-04-10 04:43:00,47.7,33.6,29.50,ESE,112,0.0,0.0,58,0.00,,CLR,0.00,VWS V14.01,2013-04-10 11:43:00,
2013-04-10 04:48:00,47.7,34.0,29.50,ESE,112,0.0,0.0,59,0.00,,CLR,0.00,VWS V14.01,2013-04-10 11:48:00,
2013-04-10 04:53:00,48.0,34.8,29.50,ESE,112,0.0,0.0,60,0.00,,CLR,0.00,VWS V14.01,2013-04-10 11:53:00,
2013-04-10 04:58:00,47.7,34.0,29.50,ESE,112,0.0,0.0,59,0.00,,CLR,0.00,VWS V14.01,2013-04-10 11:58:00,
2013-04-10 05:03:00,47.5,33.9,29.50,ESE,112,0.0,0.0,59,0.00,,CLR,0.00,VWS V14.01,2013-04-10 12:03:00,
2013-04-10 05:08:00,47.5,34.3,29.50,ESE,112,0.0,0.0,60,0.00,,CLR,0.00,VWS V14.01,2013-04-10 12:08:00,
2013-04-10 05:13:00,47.3,34.1,29.50,ESE,112,0.0,0.0,60,0.00,,CLR,0.00,VWS V14.01,2013-04-10 12:13:00,
2013-04-10 05:18:00,47.3,34.5,29.53,ESE,112,0.0,0.0,61,0.00,,CLR,0.00,VWS V14.01,2013-04-10 12:18:00,
2013-04-10 05:23:00,47.1,34.8,29.53,ESE,112,0.0,0.0,62,0.00,,CLR,0.00,VWS V14.01,2013-04-10 12:23:00,
2013-04-10 05:28:00,47.1,34.8,29.53,ESE,112,0.0,0.0,62,0.00,,CLR,0.00,VWS V14.01,2013-04-10 12:28:00,
2013-04-10 05:33:00,47.3,35.4,29.53,ESE,112,0.0,0.0,63,0.00,,CLR,0.00,VWS V14.01,2013-04-10 12:33:00,
2013-04-10 05:38:00,47.5,35.5,29.53,ESE,112,0.0,0.0,63,0.00,,CLR,0.00,VWS V14.01,2013-04-10 12:38:00,
2013-04-10 05:43:00,47.1,35.6,29.53,ESE,112,0.0,0.0,64,0.00,,CLR,0.00,VWS V14.01,2013-04-10 12:43:00,
2013-04-10 05:48:00,46.8,35.2,29.53,ESE,112,0.0,0.0,64,0.00,,CLR,0.00,VWS V14.01,2013-04-10 12:48:00,
2013-04-10 05:54:00,46.6,35.5,29.53,ESE,112,0.0,0.0,65,0.00,,CLR,0.00,VWS V14.01,2013-04-10 12:54:00,
2013-04-10 05:59:00,46.4,34.9,29.53,SE,135,0.0,0.0,64,0.00,,CLR,0.00,VWS V14.01,2013-04-10 12:59:00,
2013-04-10 06:04:00,46.0,35.3,29.56,SE,135,0.0,0.0,66,0.00,,CLR,0.00,VWS V14.01,2013-04-10 13:04:00,
2013-04-10 06:09:00,45.9,35.2,29.56,ESE,112,0.0,0.0,66,0.00,,CLR,0.00,VWS V14.01,2013-04-10 13:09:00,
2013-04-10 06:14:00,45.9,35.5,29.56,ESE,112,0.0,0.0,67,0.00,,CLR,0.00,VWS V14.01,2013-04-10 13:14:00,
2013-04-10 06:19:00,46.0,35.7,29.56,ESE,112,0.0,0.0,67,0.00,,CLR,0.00,VWS V14.01,2013-04-10 13:19:00,
2013-04-10 06:24:00,46.0,36.1,29.56,ESE,112,0.0,0.0,68,0.00,,CLR,0.00,VWS V14.01,2013-04-10 13:24:00,
2013-04-10 06:29:00,46.4,37.2,29.56,East,90,0.0,0.0,70,0.00,,CLR,0.00,VWS V14.01,2013-04-10 13:29:00,
2013-04-10 06:34:00,46.8,37.5,29.56,ESE,112,0.0,0.0,70,0.00,,CLR,0.00,VWS V14.01,2013-04-10 13:34:00,
2013-04-10 06:39:00,47.3,38.7,29.56,ESE,112,0.0,0.0,72,0.00,,CLR,0.00,VWS V14.01,2013-04-10 13:39:00,
2013-04-10 06:44:00,47.3,38.7,29.56,ESE,112,0.0,0.0,72,0.00,,CLR,0.00,VWS V14.01,2013-04-10 13:44:00,
2013-04-10 06:49:00,47.5,38.6,29.56,East,90,0.0,0.0,71,0.00,,CLR,0.00,VWS V14.01,2013-04-10 13:49:00,
2013-04-10 06:54:00,47.3,38.4,29.56,ESE,112,0.0,0.0,71,0.00,,CLR,0.00,VWS V14.01,2013-04-10 13:54:00,
2013-04-10 06:59:00,47.3,38.4,29.56,ESE,112,0.0,0.0,71,0.00,,CLR,0.00,VWS V14.01,2013-04-10 13:59:00,
2013-04-10 07:04:00,47.3,38.4,29.56,ESE,112,0.0,0.0,71,0.00,,CLR,0.00,VWS V14.01,2013-04-10 14:04:00,
2013-04-10 07:09:00,47.8,38.9,29.56,ESE,112,0.0,0.0,71,0.00,,CLR,0.00,VWS V14.01,2013-04-10 14:09:00,
2013-04-10 07:14:00,48.2,39.2,29.56,ESE,112,0.0,0.0,71,0.00,,CLR,0.00,VWS V14.01,2013-04-10 14:14:00,
2013-04-10 07:19:00,48.7,39.8,29.56,ESE,112,0.0,0.0,71,0.00,,CLR,0.00,VWS V14.01,2013-04-10 14:19:00,
2013-04-10 07:24:00,48.7,39.8,29.56,ESE,112,0.0,0.0,71,0.00,,CLR,0.00,VWS V14.01,2013-04-10 14:24:00,
2013-04-10 07:29:00,49.3,40.3,29.56,East,90,0.0,0.0,71,0.00,,CLR,0.00,VWS V14.01,2013-04-10 14:29:00,
2013-04-10 07:34:00,49.8,40.4,29.56,ESE,112,0.0,0.0,70,0.00,,CLR,0.00,VWS V14.01,2013-04-10 14:34:00,
2013-04-10 07:39:00,52.0,42.5,29.56,East,90,0.0,0.0,70,0.00,,CLR,0.00,VWS V14.01,2013-04-10 14:39:00,
2013-04-10 07:44:00,53.4,43.1,29.59,ENE,68,0.0,0.0,68,0.00,,CLR,0.00,VWS V14.01,2013-04-10 14:44:00,
2013-04-10 07:49:00,54.5,43.4,29.59,ENE,68,0.0,0.0,66,0.00,,CLR,0.00,VWS V14.01,2013-04-10 14:49:00,
2013-04-10 07:54:00,55.9,43.1,29.59,NE,45,0.0,0.0,62,0.00,,CLR,0.00,VWS V14.01,2013-04-10 14:54:00,
2013-04-10 07:59:00,56.7,43.4,29.59,NE,45,0.0,0.0,61,0.00,,CLR,0.00,VWS V14.01,2013-04-10 14:59:00,
2013-04-10 08:04:00,57.7,43.1,29.59,NE,45,0.0,0.0,58,0.00,,CLR,0.00,VWS V14.01,2013-04-10 15:04:00,
2013-04-10 08:09:00,58.6,43.0,29.59,NNE,22,0.0,0.0,56,0.00,,CLR,0.00,VWS V14.01,2013-04-10 15:09:00,
2013-04-10 08:14:00,59.4,43.2,29.59,NNE,22,0.0,0.0,55,0.00,,CLR,0.00,VWS V14.01,2013-04-10 15:14:00,
2013-04-10 08:19:00,60.1,43.4,29.59,NNE,22,0.0,0.0,54,0.00,,CLR,0.00,VWS V14.01,2013-04-10 15:19:00,
2013-04-10 08:24:00,61.3,44.1,29.59,NE,45,0.0,0.0,53,0.00,,CLR,0.00,VWS V14.01,2013-04-10 15:24:00,
2013-04-10 08:29:00,62.6,44.8,29.59,ENE,68,0.0,0.0,52,0.00,,CLR,0.00,VWS V14.01,2013-04-10 15:29:00,
2013-04-10 08:34:00,63.9,45.4,29.59,NNE,22,0.0,0.0,51,0.00,,CLR,0.00,VWS V14.01,2013-04-10 15:34:00,
2013-04-10 08:39:00,64.8,44.6,29.59,NNE,22,0.0,0.0,48,0.00,,CLR,0.00,VWS V14.01,2013-04-10 15:39:00,
2013-04-10 08:44:00,65.7,44.9,29.59,North,0,0.0,0.0,47,0.00,,CLR,0.00,VWS V14.01,2013-04-10 15:44:00,
2013-04-10 08:49:00,66.7,45.3,29.59,North,0,0.0,0.0,46,0.00,,CLR,0.00,VWS V14.01,2013-04-10 15:49:00,
2013-04-10 08:54:00,66.9,43.7,29.59,NNW,338,0.0,0.0,43,0.00,,CLR,0.00,VWS V14.01,2013-04-10 15:54:00,
2013-04-10 08:59:00,67.1,43.9,29.59,NNW,338,0.0,0.0,43,0.00,,CLR,0.00,VWS V14.01,2013-04-10 15:59:00,
2013-04-10 09:04:00,68.0,44.1,29.59,NNW,338,0.0,0.0,42,0.00,,CLR,0.00,VWS V14.01,2013-04-10 16:04:00,
2013-04-10 09:09:00,68.4,43.8,29.59,NNW,338,0.0,0.0,41,0.00,,CLR,0.00,VWS V14.01,2013-04-10 16:09:00,
2013-04-10 09:14:00,69.1,44.4,29.59,NNW,338,0.0,0.0,41,0.00,,CLR,0.00,VWS V14.01,2013-04-10 16:14:00,
2013-04-10 09:19:00,70.2,44.7,29.59,NNW,338,0.0,0.0,40,0.00,,CLR,0.00,VWS V14.01,2013-04-10 16:19:00,
2013-04-10 09:24:00,71.2,44.4,29.59,NNE,22,0.0,0.0,38,0.00,,CLR,0.00,VWS V14.01,2013-04-10 16:24:00,
2013-04-10 09:29:00,71.8,44.8,29.62,NNW,338,0.0,0.0,38,0.00,,CLR,0.00,VWS V14.01,2013-04-10 16:29:00,
2013-04-10 09:34:00,72.5,44.1,29.62,NNW,338,0.0,0.0,36,0.00,,CLR,0.00,VWS V14.01,2013-04-10 16:34:00,
2013-04-10 09:39:00,73.0,43.0,29.62,WNW,292,0.0,0.0,34,0.00,,CLR,0.00,VWS V14.01,2013-04-10 16:39:00,
2013-04-10 09:44:00,73.6,43.5,29.59,West,270,0.0,0.0,34,0.00,,CLR,0.00,VWS V14.01,2013-04-10 16:44:00,
2013-04-10 09:49:00,73.8,43.7,29.59,NNW,338,0.0,0.0,34,0.00,,CLR,0.00,VWS V14.01,2013-04-10 16:49:00,
2013-04-10 09:54:00,75.4,44.3,29.59,NW,315,0.0,0.0,33,0.00,,CLR,0.00,VWS V14.01,2013-04-10 16:54:00,
2013-04-10 09:59:00,76.5,45.2,29.62,NNW,338,0.0,0.0,33,0.00,,CLR,0.00,VWS V14.01,2013-04-10 16:59:00,
2013-04-10 10:04:00,77.0,44.9,29.62,NW,315,0.0,0.0,32,0.00,,CLR,0.00,VWS V14.01,2013-04-10 17:04:00,
2013-04-10 10:09:00,77.9,45.7,29.62,NE,45,0.0,0.0,32,0.00,,CLR,0.00,VWS V14.01,2013-04-10 17:09:00,
2013-04-10 10:14:00,78.4,45.3,29.62,NW,315,0.0,0.0,31,0.00,,CLR,0.00,VWS V14.01,2013-04-10 17:14:00,
2013-04-10 10:19:00,78.4,45.3,29.62,NE,45,0.0,0.0,31,0.00,,CLR,0.00,VWS V14.01,2013-04-10 17:19:00,
2013-04-10 10:24:00,79.0,44.9,29.62,WNW,292,0.0,0.0,30,0.00,,CLR,0.00,VWS V14.01,2013-04-10 17:24:00,
2013-04-10 10:29:00,80.4,46.2,29.59,NW,315,0.0,0.0,30,0.00,,CLR,0.00,VWS V14.01,2013-04-10 17:29:00,
2013-04-10 10:34:00,81.1,46.8,29.59,SSW,202,0.0,630.1,30,0.00,,CLR,0.00,VWS V14.01,2013-04-10 17:34:00,
2013-04-10 10:39:00,81.3,46.1,29.59,NNE,22,0.0,0.0,29,0.00,,CLR,0.00,VWS V14.01,2013-04-10 17:39:00,
2013-04-10 10:44:00,80.6,45.4,29.59,SSW,202,0.0,0.0,29,0.00,,CLR,0.00,VWS V14.01,2013-04-10 17:44:00,
2013-04-10 10:49:00,81.1,45.9,29.59,SE,135,0.0,0.0,29,0.00,,CLR,0.00,VWS V14.01,2013-04-10 17:49:00,
2013-04-10 10:55:00,81.0,45.8,29.59,SSW,202,0.0,0.0,29,0.00,,CLR,0.00,VWS V14.01,2013-04-10 17:55:00,
2013-04-10 11:00:00,80.6,45.4,29.59,WSW,248,0.0,0.0,29,0.00,,CLR,0.00,VWS V14.01,2013-04-10 18:00:00,
2013-04-10 11:05:00,80.8,46.5,29.59,WSW,248,0.0,0.0,30,0.00,,CLR,0.00,VWS V14.01,2013-04-10 18:05:00,
2013-04-10 11:10:00,81.1,45.9,29.59,West,270,0.0,0.0,29,0.00,,CLR,0.00,VWS V14.01,2013-04-10 18:10:00,
2013-04-10 11:15:00,81.7,46.4,29.59,WSW,248,0.0,0.0,29,0.00,,CLR,0.00,VWS V14.01,2013-04-10 18:15:00,
2013-04-10 11:20:00,81.0,45.8,29.59,SW,225,0.0,0.0,29,0.00,,CLR,0.00,VWS V14.01,2013-04-10 18:20:00,
2013-04-10 11:25:00,80.2,45.1,29.59,West,270,0.0,0.0,29,0.00,,CLR,0.00,VWS V14.01,2013-04-10 18:25:00,
2013-04-10 11:30:00,80.1,45.9,29.59,WSW,248,0.0,0.0,30,0.00,,CLR,0.00,VWS V14.01,2013-04-10 18:30:00,
2013-04-10 11:35:00,79.9,45.7,29.59,SSW,202,0.0,0.0,30,0.00,,CLR,0.00,VWS V14.01,2013-04-10 18:35:00,
2013-04-10 11:40:00,80.1,45.9,29.59,NW,315,0.0,0.0,30,0.00,,CLR,0.00,VWS V14.01,2013-04-10 18:40:00,
2013-04-10 11:45:00,79.9,45.7,29.56,SSW,202,0.0,0.0,30,0.00,,CLR,0.00,VWS V14.01,2013-04-10 18:45:00,
2013-04-10 11:50:00,79.7,45.6,29.56,SW,225,0.0,0.0,30,0.00,,CLR,0.00,VWS V14.01,2013-04-10 18:50:00,
2013-04-10 11:55:00,80.4,46.2,29.56,SSW,202,0.0,0.0,30,0.00,,CLR,0.00,VWS V14.01,2013-04-10 18:55:00,
2013-04-10 12:00:00,79.7,45.6,29.59,SSE,158,0.0,0.0,30,0.00,,CLR,0.00,VWS V14.01,2013-04-10 19:00:00,
2013-04-10 12:05:00,79.9,45.7,29.59,NNW,338,0.0,0.0,30,0.00,,CLR,0.00,VWS V14.01,2013-04-10 19:05:00,
2013-04-10 12:10:00,79.5,44.5,29.59,ESE,112,0.0,0.0,29,0.00,,CLR,0.00,VWS V14.01,2013-04-10 19:10:00,
2013-04-10 12:15:00,80.2,46.0,29.56,SSE,158,0.0,0.0,30,0.00,,CLR,0.00,VWS V14.01,2013-04-10 19:15:00,
2013-04-10 12:20:00,80.4,45.3,29.56,WSW,248,0.0,0.0,29,0.00,,CLR,0.00,VWS V14.01,2013-04-10 19:20:00,
2013-04-10 12:25:00,80.4,45.3,29.56,SSW,202,0.0,0.0,29,0.00,,CLR,0.00,VWS V14.01,2013-04-10 19:25:00,
2013-04-10 12:30:00,80.4,45.3,29.56,South,180,0.0,0.0,29,0.00,,CLR,0.00,VWS V14.01,2013-04-10 19:30:00,
2013-04-10 12:35:00,81.5,43.3,29.56,SSW,202,0.0,0.0,26,0.00,,CLR,0.00,VWS V14.01,2013-04-10 19:35:00,
2013-04-10 12:40:00,81.3,43.2,29.56,SSW,202,0.0,0.0,26,0.00,,CLR,0.00,VWS V14.01,2013-04-10 19:40:00,
2013-04-10 12:45:00,81.1,42.0,29.56,SSW,202,0.0,0.0,25,0.00,,CLR,0.00,VWS V14.01,2013-04-10 19:45:00,
2013-04-10 12:50:00,80.6,39.4,29.56,NNW,338,0.0,0.0,23,0.00,,CLR,0.00,VWS V14.01,2013-04-10 19:50:00,
2013-04-10 12:55:00,81.3,41.1,29.56,SW,225,0.0,0.0,24,0.00,,CLR,0.00,VWS V14.01,2013-04-10 19:55:00,
2013-04-10 13:00:00,80.6,38.3,29.53,SW,225,0.0,0.0,22,0.00,,,0.00,VWS V14.01,2013-04-10 20:00:00,
2013-04-10 13:05:00,80.8,38.4,29.53,South,180,0.0,0.0,22,0.00,,,0.00,VWS V14.01,2013-04-10 20:05:00,
2013-04-10 13:10:00,80.4,38.1,29.53,South,180,3.4,3.4,22,0.00,,,0.00,VWS V14.01,2013-04-10 20:10:00,
2013-04-10 13:15:00,80.2,36.8,29.56,SSW,202,5.6,5.6,21,0.00,,,0.00,VWS V14.01,2013-04-10 20:15:00,
2013-04-10 13:20:00,80.6,35.9,29.56,SW,225,6.5,6.5,20,0.00,,,0.00,VWS V14.01,2013-04-10 20:20:00,
2013-04-10 13:25:00,81.0,37.4,29.56,SSW,202,7.8,7.8,21,0.00,,,0.00,VWS V14.01,2013-04-10 20:25:00,
2013-04-10 13:30:00,81.0,37.4,29.56,SW,225,6.0,6.0,21,0.00,,,0.00,VWS V14.01,2013-04-10 20:30:00,
2013-04-10 13:35:00,81.0,37.4,29.56,WSW,248,5.6,5.6,21,0.00,,,0.00,VWS V14.01,2013-04-10 20:35:00,
2013-04-10 13:40:00,81.3,37.7,29.56,WSW,248,2.9,2.9,21,0.00,,,0.00,VWS V14.01,2013-04-10 20:40:00,
2013-04-10 13:45:00,81.3,36.5,29.56,SW,225,4.0,4.0,20,0.00,,,0.00,VWS V14.01,2013-04-10 20:45:00,
2013-04-10 13:51:00,81.5,36.6,29.56,WNW,292,3.4,3.4,20,0.00,,,0.00,VWS V14.01,2013-04-10 20:51:00,
2013-04-10 13:55:00,81.7,36.8,29.56,SW,225,6.5,6.5,20,0.00,,,0.00,VWS V14.01,2013-04-10 20:55:00,
2013-04-10 14:01:00,80.6,35.9,29.56,SSW,202,9.6,9.6,20,0.00,,CLR,0.00,VWS V14.01,2013-04-10 21:01:00,
2013-04-10 14:06:00,81.0,36.2,29.56,West,270,4.3,4.3,20,0.00,,CLR,0.00,VWS V14.01,2013-04-10 21:06:00,
2013-04-10 14:11:00,81.5,36.6,29.56,WNW,292,6.3,6.3,20,0.00,,CLR,0.00,VWS V14.01,2013-04-10 21:11:00,
2013-04-10 14:16:00,81.5,36.6,29.56,South,180,2.0,2.0,20,0.00,,CLR,0.00,VWS V14.01,2013-04-10 21:16:00,
2013-04-10 14:21:00,81.0,36.2,29.56,SW,225,4.3,4.3,20,0.00,,CLR,0.00,VWS V14.01,2013-04-10 21:21:00,
2013-04-10 14:26:00,81.5,36.6,29.56,WSW,248,4.0,4.0,20,0.00,,CLR,0.00,VWS V14.01,2013-04-10 21:26:00,
2013-04-10 14:31:00,81.7,36.8,29.56,WSW,248,3.6,3.6,20,0.00,,CLR,0.00,VWS V14.01,2013-04-10 21:31:00,
2013-04-10 14:36:00,80.8,36.0,29.56,WSW,248,3.4,3.4,20,0.00,,CLR,0.00,VWS V14.01,2013-04-10 21:36:00,
2013-04-10 14:41:00,80.8,36.0,29.56,West,270,3.1,3.1,20,0.00,,CLR,0.00,VWS V14.01,2013-04-10 21:41:00,
2013-04-10 14:46:00,80.8,36.0,29.53,WSW,248,6.0,6.0,20,0.00,,CLR,0.00,VWS V14.01,2013-04-10 21:46:00,
2013-04-10 14:51:00,82.2,38.4,29.53,SW,225,6.0,6.0,21,0.00,,CLR,0.00,VWS V14.01,2013-04-10 21:51:00,
2013-04-10 14:56:00,81.1,36.3,29.53,WSW,248,3.4,3.4,20,0.00,,CLR,0.00,VWS V14.01,2013-04-10 21:56:00,
2013-04-10 15:01:00,80.8,37.2,29.56,SSW,202,6.0,6.0,21,0.00,,CLR,0.00,VWS V14.01,2013-04-10 22:01:00,
2013-04-10 15:06:00,80.4,38.1,29.56,SW,225,3.4,3.4,22,0.00,,CLR,0.00,VWS V14.01,2013-04-10 22:06:00,
2013-04-10 15:11:00,81.0,38.6,29.56,SW,225,5.8,5.8,22,0.00,,CLR,0.00,VWS V14.01,2013-04-10 22:11:00,
2013-04-10 15:16:00,80.4,38.1,29.53,SSW,202,2.9,2.9,22,0.00,,CLR,0.00,VWS V14.01,2013-04-10 22:16:00,
2013-04-10 15:21:00,79.5,36.2,29.53,South,180,2.9,2.9,21,0.00,,CLR,0.00,VWS V14.01,2013-04-10 22:21:00,
2013-04-10 15:26:00,80.4,37.0,29.53,South,180,2.7,2.7,21,0.00,,CLR,0.00,VWS V14.01,2013-04-10 22:26:00,
2013-04-10 15:32:00,80.4,37.0,29.53,SSW,202,3.4,3.4,21,0.00,,CLR,0.00,VWS V14.01,2013-04-10 22:32:00,
2013-04-10 15:37:00,80.4,37.0,29.53,SSW,202,3.4,3.4,21,0.00,,CLR,0.00,VWS V14.01,2013-04-10 22:37:00,
2013-04-10 15:42:00,81.0,36.2,29.53,SW,225,3.4,3.4,20,0.00,,CLR,0.00,VWS V14.01,2013-04-10 22:42:00,
2013-04-10 15:47:00,81.7,36.8,29.53,WSW,248,2.7,2.7,20,0.00,,CLR,0.00,VWS V14.01,2013-04-10 22:47:00,
2013-04-10 15:52:00,82.6,37.5,29.53,WSW,248,3.6,3.6,20,0.00,,CLR,0.00,VWS V14.01,2013-04-10 22:52:00,
2013-04-10 15:57:00,83.1,36.6,29.53,WSW,248,4.9,4.9,19,0.00,,CLR,0.00,VWS V14.01,2013-04-10 22:57:00,
2013-04-10 16:02:00,82.8,36.3,29.50,West,270,2.7,2.7,19,0.00,,CLR,0.00,VWS V14.01,2013-04-10 23:02:00,
2013-04-10 16:07:00,82.4,36.0,29.50,WNW,292,2.9,2.9,19,0.00,,CLR,0.00,VWS V14.01,2013-04-10 23:07:00,
2013-04-10 16:12:00,82.0,37.0,29.50,South,180,9.8,9.8,20,0.00,,CLR,0.00,VWS V14.01,2013-04-10 23:12:00,
2013-04-10 16:17:00,81.1,35.0,29.50,WSW,248,5.8,5.8,19,0.00,,CLR,0.00,VWS V14.01,2013-04-10 23:17:00,
2013-04-10 16:22:00,82.2,35.9,29.50,SW,225,3.1,3.1,19,0.00,,CLR,0.00,VWS V14.01,2013-04-10 23:22:00,
2013-04-10 16:27:00,82.0,37.0,29.50,SW,225,3.1,3.1,20,0.00,,CLR,0.00,VWS V14.01,2013-04-10 23:27:00,
2013-04-10 16:32:00,81.5,36.6,29.50,SW,225,4.3,4.3,20,0.00,,CLR,0.00,VWS V14.01,2013-04-10 23:32:00,
2013-04-10 16:37:00,81.7,36.8,29.50,WSW,248,3.6,3.6,20,0.00,,CLR,0.00,VWS V14.01,2013-04-10 23:37:00,
2013-04-10 16:42:00,81.1,36.3,29.50,West,270,4.7,4.7,20,0.00,,CLR,0.00,VWS V14.01,2013-04-10 23:42:00,
2013-04-10 16:47:00,81.0,36.2,29.50,WNW,292,3.8,3.8,20,0.00,,CLR,0.00,VWS V14.01,2013-04-10 23:47:00,
2013-04-10 16:52:00,80.6,35.9,29.50,SSW,202,3.4,3.4,20,0.00,,CLR,0.00,VWS V14.01,2013-04-10 23:52:00,
2013-04-10 16:57:00,81.0,36.2,29.50,WSW,248,2.5,2.5,20,0.00,,CLR,0.00,VWS V14.01,2013-04-10 23:57:00,
2013-04-10 17:02:00,80.4,35.7,29.50,WNW,292,3.1,3.1,20,0.00,,CLR,0.00,VWS V14.01,2013-04-11 00:02:00,
2013-04-10 17:07:00,79.9,35.3,29.50,WNW,292,3.6,3.6,20,0.00,,CLR,0.00,VWS V14.01,2013-04-11 00:07:00,
2013-04-10 17:12:00,80.4,35.7,29.50,WSW,248,3.1,3.1,20,0.00,,CLR,0.00,VWS V14.01,2013-04-11 00:12:00,
2013-04-10 17:17:00,80.1,35.4,29.50,SW,225,2.7,2.7,20,0.00,,CLR,0.00,VWS V14.01,2013-04-11 00:17:00,
2013-04-10 17:22:00,80.4,35.7,29.50,West,270,2.5,2.5,20,0.00,,CLR,0.00,VWS V14.01,2013-04-11 00:22:00,
2013-04-10 17:27:00,79.9,35.3,29.50,WSW,248,2.7,2.7,20,0.00,,CLR,0.00,VWS V14.01,2013-04-11 00:27:00,
2013-04-10 17:32:00,79.3,34.8,29.50,NNW,338,4.9,4.9,20,0.00,,CLR,0.00,VWS V14.01,2013-04-11 00:32:00,
2013-04-10 17:37:00,79.5,35.0,29.50,SSE,158,2.9,2.9,20,0.00,,CLR,0.00,VWS V14.01,2013-04-11 00:37:00,
2013-04-10 17:42:00,78.6,34.2,29.50,SSW,202,2.7,2.7,20,0.00,,CLR,0.00,VWS V14.01,2013-04-11 00:42:00,
2013-04-10 17:47:00,78.3,33.9,29.50,West,270,4.9,4.9,20,0.00,,CLR,0.00,VWS V14.01,2013-04-11 00:47:00,
2013-04-10 17:52:00,78.4,34.1,29.50,WSW,248,2.5,2.5,20,0.00,,CLR,0.00,VWS V14.01,2013-04-11 00:52:00,
2013-04-10 17:57:00,78.1,33.8,29.50,North,0,2.0,2.0,20,0.00,,CLR,0.00,VWS V14.01,2013-04-11 00:57:00,
2013-04-10 18:02:00,77.7,33.5,29.50,SSW,202,1.3,1.3,20,0.00,,CLR,0.00,VWS V14.01,2013-04-11 01:02:00,
2013-04-10 18:07:00,77.4,33.2,29.50,NNE,22,2.2,2.2,20,0.00,,CLR,0.00,VWS V14.01,2013-04-11 01:07:00,
2013-04-10 18:12:00,76.8,32.8,29.50,SSW,202,1.6,1.6,20,0.00,,CLR,0.00,VWS V14.01,2013-04-11 01:12:00,
2013-04-10 18:17:00,76.8,32.8,29.53,WSW,248,0.0,0.0,20,0.00,,CLR,0.00,VWS V14.01,2013-04-11 01:17:00,
2013-04-10 18:22:00,76.1,33.4,29.53,WSW,248,0.0,0.0,21,0.00,,CLR,0.00,VWS V14.01,2013-04-11 01:22:00,
2013-04-10 18:27:00,74.8,32.3,29.53,SW,225,2.0,2.0,21,0.00,,CLR,0.00,VWS V14.01,2013-04-11 01:27:00,
2013-04-10 18:32:00,73.6,31.3,29.50,West,270,4.0,4.0,21,0.00,,CLR,0.00,VWS V14.01,2013-04-11 01:32:00,
2013-04-10 18:37:00,72.0,31.1,29.50,SW,225,2.7,2.7,22,0.00,,CLR,0.00,VWS V14.01,2013-04-11 01:37:00,
2013-04-10 18:42:00,70.9,31.3,29.50,SSW,202,2.2,2.2,23,0.00,,CLR,0.00,VWS V14.01,2013-04-11 01:42:00,
2013-04-10 18:47:00,70.2,30.7,29.47,SSW,202,2.7,2.7,23,0.00,,CLR,0.00,VWS V14.01,2013-04-11 01:47:00,
2013-04-10 18:52:00,68.9,31.7,29.47,SW,225,2.5,2.5,25,0.00,,CLR,0.00,VWS V14.01,2013-04-11 01:52:00,
2013-04-10 18:57:00,68.0,31.9,29.47,SW,225,2.5,2.5,26,0.00,,CLR,0.00,VWS V14.01,2013-04-11 01:57:00,
2013-04-10 19:02:00,67.5,33.2,29.50,West,270,1.6,1.6,28,0.00,,CLR,0.00,VWS V14.01,2013-04-11 02:02:00,
2013-04-10 19:07:00,66.7,33.5,29.50,WSW,248,0.0,0.0,29,0.00,,CLR,0.00,VWS V14.01,2013-04-11 02:07:00,
2013-04-10 19:12:00,66.2,34.7,29.50,WSW,248,2.5,2.5,31,0.00,,CLR,0.00,VWS V14.01,2013-04-11 02:12:00,
2013-04-10 19:17:00,65.7,35.8,29.50,WNW,292,1.3,1.3,33,0.00,,CLR,0.00,VWS V14.01,2013-04-11 02:17:00,
2013-04-10 19:23:00,64.9,35.2,29.50,SW,225,0.9,0.9,33,0.00,,CLR,0.00,VWS V14.01,2013-04-11 02:23:00,
2013-04-10 19:28:00,64.6,34.8,29.50,SW,225,1.3,1.3,33,0.00,,CLR,0.00,VWS V14.01,2013-04-11 02:28:00,
2013-04-10 19:33:00,64.2,35.3,29.50,WSW,248,2.5,2.5,34,0.00,,CLR,0.00,VWS V14.01,2013-04-11 02:33:00,
2013-04-10 19:38:00,64.0,35.1,29.50,West,270,1.3,1.3,34,0.00,,CLR,0.00,VWS V14.01,2013-04-11 02:38:00,
2013-04-10 19:43:00,63.7,34.8,29.50,West,270,2.2,2.2,34,0.00,,CLR,0.00,VWS V14.01,2013-04-11 02:43:00,
2013-04-10 19:48:00,63.3,34.5,29.50,SW,225,0.0,0.0,34,0.00,,CLR,0.00,VWS V14.01,2013-04-11 02:48:00,
2013-04-10 19:53:00,63.1,34.3,29.50,SW,225,1.1,1.1,34,0.00,,CLR,0.00,VWS V14.01,2013-04-11 02:53:00,
2013-04-10 19:58:00,63.0,34.2,29.50,West,270,0.9,0.9,34,0.00,,CLR,0.00,VWS V14.01,2013-04-11 02:58:00,
2013-04-10 20:03:00,62.6,33.9,29.50,West,270,0.0,0.0,34,0.00,,CLR,0.00,VWS V14.01,2013-04-11 03:03:00,
2013-04-10 20:08:00,62.4,33.7,29.50,North,0,0.0,0.0,34,0.00,,CLR,0.00,VWS V14.01,2013-04-11 03:08:00,
2013-04-10 20:13:00,62.6,33.9,29.50,ENE,68,0.0,0.0,34,0.00,,CLR,0.00,VWS V14.01,2013-04-11 03:13:00,
2013-04-10 20:18:00,62.6,33.9,29.50,SE,135,0.0,0.0,34,0.00,,CLR,0.00,VWS V14.01,2013-04-11 03:18:00,
2013-04-10 20:23:00,62.2,33.5,29.50,ENE,68,0.0,0.0,34,0.00,,CLR,0.00,VWS V14.01,2013-04-11 03:23:00,
2013-04-10 20:28:00,61.9,34.0,29.50,East,90,0.0,0.0,35,0.00,,CLR,0.00,VWS V14.01,2013-04-11 03:28:00,
2013-04-10 20:33:00,61.7,33.8,29.50,SE,135,0.0,0.0,35,0.00,,CLR,0.00,VWS V14.01,2013-04-11 03:33:00,
2013-04-10 20:38:00,61.3,33.5,29.50,ESE,112,0.0,0.0,35,0.00,,CLR,0.00,VWS V14.01,2013-04-11 03:38:00,
2013-04-10 20:43:00,61.0,33.2,29.50,ESE,112,0.0,0.0,35,0.00,,CLR,0.00,VWS V14.01,2013-04-11 03:43:00,
2013-04-10 20:48:00,61.0,33.9,29.53,East,90,0.0,0.0,36,0.00,,CLR,0.00,VWS V14.01,2013-04-11 03:48:00,
2013-04-10 20:53:00,60.8,33.7,29.53,ESE,112,0.9,0.9,36,0.00,,CLR,0.00,VWS V14.01,2013-04-11 03:53:00,
2013-04-10 20:58:00,60.8,33.7,29.53,SE,135,0.0,0.0,36,0.00,,CLR,0.00,VWS V14.01,2013-04-11 03:58:00,
2013-04-10 21:00:00,60.6,33.5,29.53,SE,135,0.0,0.0,36,0.00,,CLR,0.00,VWS V14.01,2013-04-11 04:00:00,
2013-04-10 21:01:00,60.6,33.5,29.53,ESE,112,0.0,0.0,36,0.00,,CLR,0.00,VWS V14.01,2013-04-11 04:01:00,
2013-04-10 21:06:00,60.4,34.1,29.53,ESE,112,0.0,0.0,37,0.00,,CLR,0.00,VWS V14.01,2013-04-11 04:06:00,
2013-04-10 21:11:00,60.3,33.9,29.53,East,90,0.0,0.0,37,0.00,,CLR,0.00,VWS V14.01,2013-04-11 04:11:00,
2013-04-10 21:16:00,59.9,33.6,29.53,East,90,0.0,0.0,37,0.00,,CLR,0.00,VWS V14.01,2013-04-11 04:16:00,
2013-04-10 21:21:00,59.5,33.9,29.53,East,90,0.0,0.0,38,0.00,,CLR,0.00,VWS V14.01,2013-04-11 04:21:00,
2013-04-10 21:26:00,59.2,33.6,29.53,SSE,158,0.9,0.9,38,0.00,,CLR,0.00,VWS V14.01,2013-04-11 04:26:00,
2013-04-10 21:31:00,59.2,33.6,29.53,ESE,112,0.0,0.0,38,0.00,,CLR,0.00,VWS V14.01,2013-04-11 04:31:00,
2013-04-10 21:36:00,59.0,34.1,29.53,South,180,1.3,1.3,39,0.00,,CLR,0.00,VWS V14.01,2013-04-11 04:36:00,
2013-04-10 21:41:00,59.0,33.5,29.53,SSE,158,0.0,0.0,38,0.00,,CLR,0.00,VWS V14.01,2013-04-11 04:41:00,
2013-04-10 21:46:00,58.6,33.1,29.56,SE,135,0.0,0.0,38,0.00,,CLR,0.00,VWS V14.01,2013-04-11 04:46:00,
2013-04-10 21:51:00,58.6,33.1,29.56,South,180,0.0,0.0,38,0.00,,CLR,0.00,VWS V14.01,2013-04-11 04:51:00,
2013-04-10 21:56:00,58.8,33.9,29.56,East,90,0.0,0.0,39,0.00,,CLR,0.00,VWS V14.01,2013-04-11 04:56:00,
2013-04-10 22:01:00,58.6,33.8,29.53,SE,135,0.0,0.0,39,0.00,,CLR,0.00,VWS V14.01,2013-04-11 05:01:00,
2013-04-10 22:06:00,58.1,33.3,29.53,SSE,158,0.0,0.0,39,0.00,,CLR,0.00,VWS V14.01,2013-04-11 05:06:00,
2013-04-10 22:11:00,58.1,33.9,29.53,SE,135,0.0,0.0,40,0.00,,CLR,0.00,VWS V14.01,2013-04-11 05:11:00,
2013-04-10 22:16:00,58.1,33.9,29.53,SE,135,0.0,0.0,40,0.00,,CLR,0.00,VWS V14.01,2013-04-11 05:16:00,
2013-04-10 22:21:00,57.9,34.4,29.53,SE,135,0.0,0.0,41,0.00,,CLR,0.00,VWS V14.01,2013-04-11 05:21:00,
2013-04-10 22:26:00,57.7,34.2,29.53,SW,225,0.0,0.0,41,0.00,,CLR,0.00,VWS V14.01,2013-04-11 05:26:00,
2013-04-10 22:32:00,57.4,33.9,29.53,South,180,0.0,0.0,41,0.00,,CLR,0.00,VWS V14.01,2013-04-11 05:32:00,
2013-04-10 22:37:00,57.0,35.3,29.53,SSE,158,0.0,0.0,44,0.00,,CLR,0.00,VWS V14.01,2013-04-11 05:37:00,
2013-04-10 22:42:00,56.8,36.3,29.53,South,180,0.0,0.0,46,0.00,,CLR,0.00,VWS V14.01,2013-04-11 05:42:00,
2013-04-10 22:47:00,56.7,37.2,29.53,ESE,112,0.0,0.0,48,0.00,,CLR,0.00,VWS V14.01,2013-04-11 05:47:00,
2013-04-10 22:52:00,56.7,37.7,29.53,South,180,0.0,0.0,49,0.00,,CLR,0.00,VWS V14.01,2013-04-11 05:52:00,
2013-04-10 22:57:00,56.7,38.2,29.53,SE,135,0.0,0.0,50,0.00,,CLR,0.00,VWS V14.01,2013-04-11 05:57:00,
2013-04-10 23:02:00,56.5,38.1,29.53,SE,135,0.0,0.0,50,0.00,,CLR,0.00,VWS V14.01,2013-04-11 06:02:00,
2013-04-10 23:07:00,56.3,37.4,29.53,ESE,112,0.0,0.0,49,0.00,,CLR,0.00,VWS V14.01,2013-04-11 06:07:00,
2013-04-10 23:12:00,55.9,36.5,29.53,East,90,0.0,0.0,48,0.00,,CLR,0.00,VWS V14.01,2013-04-11 06:12:00,
2013-04-10 23:17:00,55.9,36.5,29.53,ESE,112,0.0,0.0,48,0.00,,CLR,0.00,VWS V14.01,2013-04-11 06:17:00,
2013-04-10 23:22:00,55.8,36.4,29.53,SE,135,0.0,0.0,48,0.00,,CLR,0.00,VWS V14.01,2013-04-11 06:22:00,
2013-04-10 23:27:00,55.2,35.9,29.53,SE,135,0.0,0.0,48,0.00,,CLR,0.00,VWS V14.01,2013-04-11 06:27:00,
2013-04-10 23:32:00,55.0,36.2,29.50,SE,135,0.0,0.0,49,0.00,,CLR,0.00,VWS V14.01,2013-04-11 06:32:00,
2013-04-10 23:37:00,54.7,35.9,29.50,SE,135,0.0,0.0,49,0.00,,CLR,0.00,VWS V14.01,2013-04-11 06:37:00,
2013-04-10 23:42:00,54.5,35.8,29.50,SE,135,0.0,0.0,49,0.00,,CLR,0.00,VWS V14.01,2013-04-11 06:42:00,
2013-04-10 23:47:00,54.3,35.6,29.50,SE,135,0.0,0.0,49,0.00,,CLR,0.00,VWS V14.01,2013-04-11 06:47:00,
2013-04-10 23:52:00,54.3,35.6,29.50,East,90,0.0,0.0,49,0.00,,CLR,0.00,VWS V14.01,2013-04-11 06:52:00,
2013-04-10 23:57:00,54.7,36.4,29.50,SSE,158,0.0,0.0,50,0.00,,CLR,0.00,VWS V14.01,2013-04-11 06:57:00,